sat.trackr.live / text

‹ back to catalog

UNKNOWN

NORAD 87725

UNKNOWN UNKNOWN UNKNOWN

§ Identity

Operator
Country
Launch date
Launch site
Launch vehicle
Mass (kg)
RCS (m²)

External: N2YO · Heavens-Above

§ Orbital elements

Epoch: 2026-07-18T21:38:35.880288Z

Period
93.10 min
Inclination
82.8552°
Eccentricity
0.0006740
Mean motion
15.46795051 rev/d
Perigee alt
421.5 km
Apogee alt
430.7 km
Semi-major
6,804.2 km
B*
3.0464e-3
RAAN
50.9023°
Arg perigee
79.1280°
Mean anomaly
281.0729°
Rev number
66,696

§ Raw data

UNKNOWN1 87725U          26199.90180417  .00155570  00000+0  30464-2 0  99972 87725  82.8552  50.9023 0006740  79.1280 281.0729 15.46795051666969

JSON: /api/v1/satellites/87725 · /tle

For live sub-satellite position, see the globe view (requires WebGL).

§ Visibility from observer

Set your observer location to see the next 7 days of passes ≥ 10°. The values pass through the URL so the page stays shareable.

No JS? Fill the form by hand. The geolocation button needs JavaScript.